Location: Unspecified
(50.1700°N, 6.8600°E)
Time: 01:53:37
(UTC+00:00)

Okean O Rocket - Pass Details

Date: 24 January 2019
Orbit: 622 x 646 km, 98.2° (Epoch: 22 April)

Event Time Altitude Azimuth Distance (km) Brightness Sun altitude
Rises 06:36:08 0° 357° (N) 2,952 4.8 -6.8°
Reaches altitude 10° 06:40:36 10° 314° (NW) 2,043 3.6 -6.1°
Maximum altitude 06:41:06 10° 308° (NW) 2,032 3.6 -6.1°
Drops below altitude 10° 06:41:36 10° 301° (WNW) 2,043 3.6 -6.0°
Enters shadow 06:44:51 - 267° (W) 2,599 4.2 -5.5°
